Back to catalog

STARLINK-5019

AliveCommunicationsVLEO
NORAD 55407·PAYLOAD·🇺🇸 United States

Launched Jan 31, 2023 from Vandenberg Space Force Base

Loading…

Next Passes (next 24 hours)

TLE

FreshSource: CelesTrak SupGP

Epoch: Sep 15, 2026, 02:50 UTC

1 55407C 23014S   26258.11854167  .00020636  00000+0  17290-2 0  2582
2 55407  70.0001 306.9283 0003691 266.2263 244.7514 14.98327183    12

Track STARLINK-5019 in real time with AllMySat

Download on the App Store